User: anonymous   Login
Location: Allen Lane School
(37.8198°N, 89.7382°W)
Time: 12:01:23
(UTC+00:00)
Language:

CZ-4B R/B - Orbit

View from above orbital plane
View from above orbital plane
View from above satellite
View from above satellite

Ground track
Ground track

The orbit data is extracted from the following two-line orbital elements,

1 33410U 08053C   22143.04079028  .00004034  00000-0  27515-3 0  9993
2 33410  97.8986 149.2755 0125291 276.5348  82.1624 15.00618860740580
Epoch (UTC): 23 May 2022 00:58:44
Eccentricity: 0.0125291
inclination: 97.8986°
perigee height: 478 km
apogee height: 652 km
right ascension of ascending node: 149.2755°
argument of perigee: 276.5348°
revolutions per day: 15.00618860
mean anomaly at epoch: 82.1624°
orbit number at epoch: 74058

The dashed part of the orbit path shows where the satellite is in the earth's shadow,  

DLR